Saint Simons Island, GA

6:18 AM EST on February 26, 2017 (GMT -0500)
McKinnon

Weather History for KSSI - November, 2014

Change the Weather History Date:

Monday, November 17, 2014

  Actual Average Record
Temperature  
Mean Temperature 63 °F 61 °F  
Max Temperature 76 °F 70 °F 83 °F (1964)
Min Temperature 49 °F 53 °F 32 °F (1970)
Degree Days  
Heating Degree Days 2 5  
Month to date heating degree days 113 64  
Since 1 July heating degree days 130 94  
Cooling Degree Days 0 2  
Month to date cooling degree days 11 39  
Year to date cooling degree days 2579 2600  
Growing Degree Days 14 (Base 50)    
Moisture  
Dew Point 62 °F    
Average Humidity 85    
Maximum Humidity 100    
Minimum Humidity 69    
Precipitation  
Precipitation 0.60 in 0.07 in 1.16 in (1976)
Month to date precipitation 0.60 1.23  
Year to date precipitation 39.82 41.56  
Snow  
Snow 0.00 in - 0.00 in ()
Month to date snowfall 0.0  
Since 1 July snowfall 0.0  
Since 1 September snowfall 0.0  
Snow Depth 0.00 in    
Sea Level Pressure  
Sea Level Pressure 29.91 in    
Wind  
Wind Speed 10 mph (SW)    
Max Wind Speed 21 mph    
Max Gust Speed 27 mph    
Visibility 6 miles    
Events Fog , Rain , Thunderstorm    
T = Trace of Precipitation, MM = Missing Value Source: NWS Daily Summary

Daily Weather History Graph

Daily Weather History Graph

Search for Another Location

Airport or City:

Trip Planner

Search our weather history database for the weather conditions in past years. The results will help you decide how hot, cold, wet, or windy it might be!

Date:

Astronomy

Nov. 17, 2014 Rise Set
Actual Time 6:54 AM EST 5:26 PM EST
Civil Twilight 6:28 AM EST 5:52 PM EST
Nautical Twilight 5:59 AM EST 6:21 PM EST
Astronomical Twilight 5:30 AM EST 6:50 PM EST
Moon 2:14 AM EST (11/17) 2:32 PM EST (11/17)
Length of Visible Light 11h 23m
Length of Day
10h 31m
Waning Crescent, 23% of the Moon is Illuminated
Nov 17
Waning Crescent
Nov 22
New
Nov 29
First Quarter
Dec 6
Full
Dec 14
Last Quarter

Hourly Weather History & Observations

Time (EST) Temp. Dew Point Humidity Pressure Visibility Wind Dir Wind Speed Gust Speed Precip Events Conditions
12:35 AM 60.1 °F 60.1 °F 100% 30.01 in 1.8 mi Calm Calm - N/A   Clear
12:43 AM 60.1 °F 60.1 °F 100% 30.01 in 1.0 mi Calm Calm - N/A   Mist
12:51 AM 60.8 °F 60.8 °F 100% 30.01 in 0.5 mi Calm Calm - N/A Fog Fog
12:53 AM 60.1 °F 60.1 °F 100% 30.01 in 0.5 mi Calm Calm - N/A Fog Fog
1:00 AM 59.0 °F 59.0 °F 100% 30.01 in 1.2 mi Calm Calm - N/A   Scattered Clouds
1:03 AM 59.0 °F 59.0 °F 100% 30.00 in 3.0 mi Calm Calm - N/A   Partly Cloudy
1:14 AM 59.0 °F 59.0 °F 100% 30.00 in 1.5 mi Calm Calm - N/A   Scattered Clouds
1:18 AM 59.0 °F 59.0 °F 100% 30.00 in 0.8 mi Calm Calm - N/A   Mist
1:28 AM 59.0 °F 59.0 °F 100% 29.99 in 1.0 mi Calm Calm - N/A   Mist
1:49 AM 59.0 °F 59.0 °F 100% 29.99 in 0.8 mi Calm Calm - N/A   Overcast
1:53 AM 57.9 °F 57.9 °F 100% 29.99 in 1.0 mi Calm Calm - N/A   Overcast
1:59 AM 59.0 °F 59.0 °F 100% 29.99 in 3.0 mi South 3.5 mph - N/A   Mostly Cloudy
2:06 AM 59.0 °F 59.0 °F 100% 29.98 in 4.0 mi Calm Calm - N/A   Scattered Clouds
2:53 AM 62.1 °F 62.1 °F 100% 29.97 in 6.0 mi South 4.6 mph - N/A   Mostly Cloudy
3:53 AM 64.4 °F 64.4 °F 100% 29.96 in 10.0 mi South 4.6 mph - N/A   Scattered Clouds
4:26 AM 64.0 °F 64.0 °F 100% 29.95 in 9.0 mi SSE 4.6 mph - N/A   Mostly Cloudy
4:53 AM 64.0 °F 64.0 °F 100% 29.95 in 9.0 mi South 3.5 mph - N/A   Overcast
5:53 AM 64.0 °F 64.0 °F 100% 29.94 in 9.0 mi South 6.9 mph - N/A   Partly Cloudy
6:44 AM 63.0 °F 63.0 °F 100% 29.93 in 5.0 mi South 8.1 mph - N/A   Partly Cloudy
6:53 AM 63.0 °F 63.0 °F 100% 29.93 in 5.0 mi South 6.9 mph - N/A   Partly Cloudy
7:53 AM 64.0 °F 64.0 °F 100% 29.92 in 5.0 mi South 11.5 mph - N/A   Partly Cloudy
8:53 AM 64.9 °F 64.0 °F 97% 29.92 in 8.0 mi South 11.5 mph - N/A   Partly Cloudy
9:53 AM 68.0 °F 64.9 °F 90% 29.90 in 10.0 mi South 8.1 mph 17.3 mph N/A   Scattered Clouds
10:53 AM 73.0 °F 66.0 °F 79% 29.86 in 10.0 mi South 11.5 mph - N/A   Clear
11:53 AM 75.0 °F 64.9 °F 71% 29.84 in 10.0 mi SW 17.3 mph - N/A   Scattered Clouds
12:53 PM 73.9 °F 66.0 °F 76% 29.82 in 10.0 mi WSW 9.2 mph - N/A   Overcast
1:24 PM 73.9 °F 66.0 °F 76% 29.81 in 3.0 mi WSW 10.4 mph - N/A Thunderstorm Unknown
1:28 PM 73.0 °F 66.9 °F 81% 29.82 in 0.8 mi West 11.5 mph - 0.16 in Rain , Thunderstorm Heavy Thunderstorms and Rain
1:43 PM 70.0 °F 69.1 °F 97% 29.82 in 2.0 mi SW 11.5 mph - 0.34 in Rain , Thunderstorm Light Thunderstorms and Rain
1:53 PM 70.0 °F 69.1 °F 97% 29.83 in 3.0 mi SW 10.4 mph - 0.36 in Rain , Thunderstorm Thunderstorms and Rain
2:11 PM 70.0 °F 69.1 °F 97% 29.84 in 2.5 mi SW 13.8 mph - 0.07 in Rain , Thunderstorm Thunderstorms and Rain
2:16 PM 70.0 °F 69.1 °F 97% 29.83 in 3.0 mi SSW 12.7 mph - 0.08 in Rain , Thunderstorm Light Rain
2:38 PM 68.0 °F 66.9 °F 96% 29.83 in 2.5 mi SW 16.1 mph 26.5 mph 0.17 in Rain Rain
2:50 PM 66.2 °F 66.2 °F 100% 29.82 in 4.0 mi SSW 12.7 mph - 0.21 in Rain Rain
2:53 PM 66.9 °F 66.0 °F 97% 29.83 in 4.0 mi SW 15.0 mph - 0.21 in Rain Light Rain
3:53 PM 66.0 °F 64.9 °F 96% 29.80 in 10.0 mi WSW 9.2 mph - 0.03 in   Scattered Clouds
4:03 PM 66.0 °F 64.9 °F 96% 29.82 in 10.0 mi SW 10.4 mph - N/A   Mostly Cloudy
4:10 PM 66.0 °F 64.0 °F 93% 29.80 in 10.0 mi SSW 10.4 mph - N/A   Mostly Cloudy
4:26 PM 66.0 °F 64.0 °F 93% 29.82 in 10.0 mi SW 13.8 mph - N/A   Overcast
4:53 PM 66.0 °F 64.0 °F 93% 29.82 in 10.0 mi SW 11.5 mph - N/A   Overcast
5:33 PM 64.9 °F 64.0 °F 97% 29.84 in 10.0 mi SW 11.5 mph - N/A   Overcast
5:53 PM 64.9 °F 64.0 °F 97% 29.84 in 10.0 mi SW 11.5 mph - N/A   Mostly Cloudy
6:34 PM 64.9 °F 64.0 °F 97% 29.86 in 10.0 mi SW 10.4 mph - N/A   Mostly Cloudy
6:53 PM 64.9 °F 64.0 °F 97% 29.87 in 10.0 mi WSW 10.4 mph - N/A   Mostly Cloudy
7:23 PM 64.9 °F 64.0 °F 97% 29.88 in 10.0 mi WSW 9.2 mph - N/A   Scattered Clouds
7:26 PM 64.9 °F 64.0 °F 97% 29.88 in 10.0 mi WSW 9.2 mph - N/A   Mostly Cloudy
7:39 PM 64.9 °F 64.0 °F 97% 29.89 in 10.0 mi WSW 8.1 mph - N/A   Mostly Cloudy
7:53 PM 64.0 °F 62.1 °F 93% 29.90 in 10.0 mi West 15.0 mph 23.0 mph N/A   Overcast
8:45 PM 59.0 °F 53.1 °F 81% 29.93 in 10.0 mi WNW 11.5 mph 24.2 mph N/A   Overcast
8:53 PM 59.0 °F 53.1 °F 81% 29.94 in 10.0 mi WNW 11.5 mph 17.3 mph N/A   Overcast
9:17 PM 57.0 °F 50.0 °F 77% 29.95 in 10.0 mi WNW 12.7 mph - N/A   Overcast
9:53 PM 57.0 °F 48.9 °F 74% 29.97 in 10.0 mi WNW 13.8 mph 26.5 mph N/A   Overcast
10:53 PM 52.0 °F 45.0 °F 77% 30.00 in 10.0 mi WNW 13.8 mph 24.2 mph N/A   Overcast
11:53 PM 50.0 °F 42.1 °F 74% 30.03 in 10.0 mi WNW 9.2 mph 18.4 mph N/A   Partly Cloudy